Location: Newark
(22.3060°N, 114.2134°E)
Time: 22:46:12
(UTC+00:00)

X-37B - Visible Passes

Search period start: 17 June 2021 00:00
Search period end: 27 June 2021 00:00
Orbit: 386 x 389 km, 45.0° (Epoch: 10 June)

Date Brightness Start Highest point End Pass type
(mag) Time Alt. Az. Time Alt. Az. Time Alt. Az.
20 Jun 3.8 20:37:10 10° N 20:39:13 16° NE 20:41:16 10° ENE visible
21 Jun 2.2 13:05:23 10° WSW 13:08:01 35° NW 13:08:01 35° NW visible
21 Jun 0.5 21:14:25 10° NW 21:17:35 88° SW 21:20:44 10° SE visible
22 Jun 0.4 12:06:49 10° SW 12:09:58 83° SE 12:13:09 10° NE visible
22 Jun 2.4 20:16:18 10° NNW 20:19:13 34° NE 20:22:08 10° ESE visible
23 Jun 3.7 12:46:10 10° WNW 12:48:19 17° NW 12:50:27 10° N visible
23 Jun 3.6 19:20:02 15° NNE 19:20:45 16° NE 19:22:50 10° ENE visible
23 Jun 1.4 20:54:33 10° WNW 20:57:24 30° SW 21:00:13 10° SSE visible
24 Jun 2.4 11:46:55 10° WSW 11:49:51 35° NW 11:52:49 10° NNE visible
24 Jun 2.5 20:01:06 21° SE 20:01:06 21° SE 20:02:16 10° SE visible
